Location: Tom
(33.0437°N, 96.9452°W)
Time: 08:46:30
(UTC-05:00)

Envisat - Pass Details

Date: 28 January 2019
Orbit: 764 x 766 km, 98.1° (Epoch: 14 October)

Event Time Altitude Azimuth Distance (km) Brightness Sun altitude
Rises 20:21:13 0° 203° (SSW) 3,217 6.5 -30.5°
Reaches altitude 10° 20:24:08 10° 220° (SW) 2,295 5.9 -31.1°
Maximum altitude 20:27:43 19° 266° (W) 1,739 5.5 -31.8°
Drops below altitude 10° 20:31:20 10° 311° (NW) 2,305 6.0 -32.6°
Sets 20:34:17 0° 329° (NNW) 3,235 6.6 -33.2°
